Location: Marcé
(47.5801°N, 0.3280°W)
Time: 13:57:59
(UTC+02:00)

ISS - Visible Passes

Search period start: 23 October 2021 00:00
Search period end: 01 November 2021 23:00
Orbit: 417 x 423 km, 51.6° (Epoch: 23 October)

Date Brightness Start Highest point End Pass type
(mag) Time Alt. Az. Time Alt. Az. Time Alt. Az.
23 Oct -2.9 07:49:00 10° SW 07:52:17 51° SSE 07:55:34 10° ENE visible
24 Oct -2.3 07:02:38 14° SSW 07:05:08 34° SE 07:08:13 10° ENE visible
25 Oct -1.7 06:17:50 22° SE 06:18:00 22° SE 06:20:44 10° E visible
25 Oct -3.8 07:51:12 10° WSW 07:54:34 77° NNW 07:57:57 10° ENE visible
26 Oct -0.3 05:32:52 10° E 05:32:52 10° E 05:32:56 10° E visible
26 Oct -3.7 07:05:52 31° SW 07:07:19 77° SSE 07:10:41 10° ENE visible
27 Oct -2.6 06:20:47 42° ESE 06:20:47 42° ESE 06:23:23 10° ENE visible
27 Oct -3.3 07:53:47 11° W 07:56:58 48° NNW 08:00:15 10° ENE visible
28 Oct -0.3 05:35:37 12° E 05:35:37 12° E 05:36:00 10° ENE visible
28 Oct -3.6 07:08:36 38° WNW 07:09:37 58° NNW 07:12:58 10° ENE visible
29 Oct -2.5 06:23:22 40° NE 06:23:22 40° NE 06:25:41 10° ENE visible
29 Oct -2.9 07:56:21 11° WNW 07:59:25 39° N 08:02:37 10° ENE visible
30 Oct -0.3 05:38:04 12° ENE 05:38:04 12° ENE 05:38:23 10° ENE visible
30 Oct -3.1 07:11:02 32° NW 07:12:00 42° N 07:15:15 10° ENE visible
31 Oct -2.2 05:25:42 33° NE 05:25:42 33° NE 05:27:54 10° ENE visible
31 Oct -3.0 06:58:41 11° WNW 07:01:50 43° N 07:05:04 10° E visible
01 Nov -0.3 04:40:20 12° ENE 04:40:20 12° ENE 04:40:35 10° ENE visible
01 Nov -2.9 06:13:19 30° NW 06:14:24 40° N 06:17:38 10° ENE visible
